Location: Austin
(30.3000°N, 97.7500°W)
Time: 03:08:01
(UTC-05:00)

YAOGAN 11 - Pass Details

Date: 01 October 2024
Orbit: 604 x 656 km, 98.4° (Epoch: 06 October)

Event Time Altitude Azimuth Distance (km) Brightness Sun altitude
Rises 19:40:56 0° 12° (NNE) 2,877 7.4 -6.3°
Reaches altitude 10° 19:43:06 10° 12° (NNE) 1,975 6.5 -6.8°
Maximum altitude 19:47:24 87° 287° (WNW) 625 4.1 -7.7°
Drops below altitude 10° 19:51:44 10° 195° (SSW) 1,994 6.9 -8.6°
Sets 19:53:56 0° 195° (SSW) 2,906 7.7 -9.1°
